[[{"header":{"parameterUnit":"m.s-1","parameterCategory":1,"la1":30.2991,"la2":30.254,"lo1":-89.0895,"lo2":-89.0444,"dy":0.0017,"dx":0.0017,"nx":28,"ny":28,"refTime":"2024-08-10T03:00:00:Z","depth":0,"parameterNumber":2,"parameterNumberName":"U-component_of_WINDS"},"data":[0,0,0,0,0,0,0,0,0,0,0,0,0,0,0,0,0,0,0,0,0,0,0,0,0,0,0,0,0,0,0,0,0,0,0,0,0,0,0,0,0,0,0,0,0,0,0,0,0,0,0,0,0,0,0,0,0,0,1.5044,1.5046,0,1.5205,1.5206,1.5208,1.5232,1.523,1.5229,1.5228,1.5398,1.5404,1.541,0,0,0,0,0,0,0,0,0,0,0,0,0,1.4765,1.477,1.5044,1.5046,1.5048,1.5204,1.5206,1.5209,1.5232,1.523,1.5229,1.5227,1.5396,1.5403,1.541,0,0,0,0,0,0,0,0,0,0,0,0,0,1.4902,1.4772,1.5044,1.5079,1.5083,1.5204,1.5207,1.5209,1.5232,1.523,1.5228,1.5226,1.5394,1.5402,1.5411,1.551,0,0,1.5438,1.5442,0,0,0,0,0,0,0,0,1.4894,1.4912,1.5071,1.5076,1.5082,1.5196,1.5171,1.531,1.5233,1.5176,1.5227,1.5225,1.5333,1.5347,1.5382,1.5518,1.5526,1.5439,1.5444,1.5448,1.5451,0,0,0,0,0,0,0,1.4885,1.4905,1.5108,1.5074,1.508,1.5088,1.5105,1.5197,1.5265,1.5181,1.5183,1.5201,1.5335,1.5373,1.5386,1.5528,1.5439,1.5447,1.5452,1.5456,1.5755,1.5757,0,0,0,0,0,0,1.4868,1.4897,1.5103,1.5113,1.498,1.5095,1.5114,1.5162,1.5264,1.5278,1.5203,1.5202,1.5359,1.5376,1.5392,1.5515,1.5448,1.5456,1.5462,1.5752,1.5755,1.5758,0,0,0,0,0,0,1.4862,1.4886,1.5096,1.5006,1.5033,1.5102,1.5155,1.5166,1.5204,1.5281,1.5294,1.5229,1.5358,1.538,1.548,1.5521,1.546,1.5469,1.5749,1.5753,1.5757,1.5761,0,0,0,0,0,0,1.4854,1.4884,1.492,1.5006,1.5038,1.518,1.5158,1.5171,1.5218,1.5218,1.5308,1.5321,1.5358,1.5467,1.5489,1.5532,1.5475,1.5746,1.5751,1.5755,1.5757,1.5765,1.5771,0,0,0,0,0,1.4844,1.4917,1.4922,1.4947,1.5085,1.5182,1.52,1.5239,1.5221,1.526,1.531,1.5318,1.5513,1.5477,1.5502,1.5549,1.5743,1.5749,1.5755,1.5755,1.5763,1.577,0,0,0,0,0,0,1.4836,1.4928,1.4936,1.5038,1.5102,1.5186,1.5235,1.5247,1.5319,1.5316,1.5364,1.5384,1.5482,1.5526,1.5484,1.565,1.5627,1.5638,1.5618,1.5627,1.5633,1.5621,1.5483,0,0,0,0,0,1.4845,1.4915,1.4993,1.5076,1.5107,1.5166,1.521,1.5234,1.5303,1.5331,1.5388,1.5456,1.5533,1.5582,1.5657,1.5764,1.5785,1.5809,1.5815,1.582,1.5829,1.589,1.5901,1.5777,1.5777,1.5777,0,0,1.4867,1.4926,1.4968,1.5076,1.5128,1.52,1.5188,1.5266,1.5321,1.5343,1.5441,1.5486,1.5565,1.5669,1.5718,1.5709,1.5868,1.5828,1.5831,1.5838,1.5897,1.5908,1.5919,1.5781,1.5781,1.578,0,0,1.4943,1.4995,1.5069,1.5122,1.52,1.5239,1.5257,1.534,1.5369,1.5468,1.5486,1.5554,1.5684,1.574,1.5786,1.5884,1.5895,1.5907,1.5941,1.5999,1.6009,1.6018,1.6053,1.6065,1.5916,1.5916,1.5916,0,1.4961,1.5068,1.5107,1.5183,1.5231,1.5253,1.533,1.538,1.548,1.5513,1.55,1.5665,1.572,1.5838,1.5861,1.5898,1.5921,1.5897,1.6004,1.6014,1.6023,1.6056,1.6069,1.5917,1.5917,1.5917,1.5917,0,1.5086,1.5161,1.5212,1.5306,1.5359,1.5436,1.5487,1.5538,1.5558,1.5598,1.5699,1.5766,1.5855,1.5885,1.5906,1.6006,1.5998,1.5994,1.5972,1.6034,1.6067,1.6081,1.5918,1.5918,1.5918,1.5918,0,0,1.5161,1.5275,1.5293,1.5336,1.5424,1.5484,1.5562,1.5647,1.5689,1.5758,1.5826,1.5936,1.5933,1.5985,1.6013,1.6064,1.6138,1.6055,1.6058,1.6068,1.6252,1.6253,1.6268,1.6146,1.6148,1.615,1.6245,0,1.5247,1.5385,1.5422,1.5539,1.5609,1.5632,1.57,1.5763,1.5803,1.587,1.5916,1.5993,1.5984,1.6015,1.6067,1.6117,1.6175,1.6111,1.621,1.6213,1.6188,1.6285,1.6287,1.6373,1.6258,1.6261,1.6262,0,1.5366,1.5435,1.5558,1.5638,1.5669,1.5729,1.581,1.5873,1.5946,1.5972,1.603,1.6053,1.6137,1.611,1.6228,1.6184,1.6227,1.6258,1.6262,1.6273,1.6241,1.6297,1.6401,1.6414,1.6283,1.6281,1.628,0,1.5408,1.5532,1.5621,1.5658,1.5753,1.5795,1.5837,1.5907,1.5956,1.6028,1.606,1.6142,1.6186,1.625,1.6295,1.6271,1.6409,1.6386,1.6434,1.6433,1.6461,1.6459,1.6573,1.649,1.649,1.6489,1.6489,0,1.55,1.5574,1.5641,1.5696,1.5781,1.5825,1.5908,1.5952,1.6014,1.608,1.6106,1.6167,1.6223,1.6293,1.6329,1.6421,1.6442,1.6466,1.6475,1.6463,1.646,1.6492,1.6487,1.6493,1.6492,1.6491,1.6491,0,1.556,1.5608,1.5707,1.5789,1.5812,1.5871,1.5942,1.5997,1.6038,1.6121,1.6143,1.6209,1.6292,1.6344,1.645,1.6475,1.6576,1.6583,1.655,1.6554,1.6599,1.6594,1.6737,1.6758,1.6661,1.6662,1.6663,0,1.5615,1.5673,1.576,1.5805,1.5847,1.5919,1.5968,1.6014,1.6065,1.6152,1.6197,1.6282,1.6351,1.6484,1.6542,1.6624,1.6633,1.6678,1.6646,1.6632,1.6633,1.6629,1.6635,1.6683,1.6683,1.6684,1.6685,0,1.5707,1.5728,1.5797,1.5875,1.5932,1.5996,1.606,1.6096,1.6153,1.6209,1.6293,1.6348,1.6455,1.6539,1.6626,1.6672,1.6688,1.6694,1.671,1.6698,1.6676,1.6688,1.6564,1.6691,1.669,1.669,1.6689,1.6689,1.5767,1.5819,1.5888,1.5965,1.6017,1.6077,1.6133,1.618,1.6251,1.634,1.6364,1.6452,1.6525,1.6643,1.6691,1.6762,1.6756,1.6778,1.6783,1.6788,1.6788,1.6666,1.6778,1.6778,1.6778,1.6778,1.6778,0,1.586,1.5906,1.5975,1.6063,1.6124,1.6132,1.6204,1.6254,1.6331,1.6396,1.6464,1.6561,1.6643,1.6707,1.6792,1.6836,1.6846,1.6857,1.6854,1.6864,1.6789,1.6767,1.6848,1.6848,1.6848,1.6848,1.6848,1.6848,1.5915,1.6004,1.6033,1.6149,1.6195,1.628,1.632,1.6376,1.6428,1.6535,1.6602,1.6643,1.6709,1.6798,1.6874,1.6891,1.6921,1.693,1.6948,1.6877,1.687,1.6862,1.6842,1.6936,1.6936,1.7017,1.7018,1.7019]},{"header":{"parameterUnit":"m.s-1","parameterCategory":1,"la1":30.2991,"la2":30.254,"lo1":-89.0895,"lo2":-89.0444,"dy":0.0017,"dx":0.0017,"nx":28,"ny":28,"refTime":"2024-08-10T03:00:00:Z","depth":0,"parameterNumber":3,"parameterNumberName":"V-component_of_WINDS"},"data":[0,0,0,0,0,0,0,0,0,0,0,0,0,0,0,0,0,0,0,0,0,0,0,0,0,0,0,0,0,0,0,0,0,0,0,0,0,0,0,0,0,0,0,0,0,0,0,0,0,0,0,0,0,0,0,0,0,0,0.2432,0.2433,0,0.2524,0.2525,0.2526,0.2479,0.2477,0.2475,0.2472,0.2567,0.2572,0.2577,0,0,0,0,0,0,0,0,0,0,0,0,0,0.2212,0.2216,0.2432,0.2433,0.2434,0.2524,0.2525,0.2526,0.248,0.2477,0.2474,0.2471,0.2566,0.2572,0.2577,0,0,0,0,0,0,0,0,0,0,0,0,0,0.2306,0.2218,0.2431,0.2422,0.2422,0.2524,0.2525,0.2527,0.2481,0.2477,0.2473,0.247,0.2564,0.2571,0.2578,0.2695,0,0,0.26,0.2603,0,0,0,0,0,0,0,0,0.2301,0.2314,0.2422,0.2422,0.2423,0.2486,0.2483,0.2583,0.2481,0.2458,0.2472,0.2468,0.2543,0.2552,0.2577,0.27,0.2704,0.2601,0.2605,0.2608,0.261,0,0,0,0,0,0,0,0.2295,0.231,0.2468,0.2423,0.2424,0.2412,0.2421,0.2501,0.252,0.246,0.2457,0.2468,0.2543,0.2571,0.2579,0.2705,0.26,0.2607,0.2611,0.2614,0.2923,0.2926,0,0,0,0,0,0,0.2289,0.2305,0.2465,0.2471,0.2352,0.2418,0.2429,0.247,0.2519,0.2523,0.2471,0.2466,0.256,0.2571,0.2583,0.2719,0.2608,0.2615,0.2619,0.2919,0.2924,0.2928,0,0,0,0,0,0,0.2284,0.2303,0.2462,0.2387,0.2406,0.2426,0.2472,0.2473,0.2501,0.2528,0.2531,0.2496,0.2558,0.2572,0.2666,0.2722,0.2618,0.2625,0.2914,0.292,0.2926,0.2996,0,0,0,0,0,0,0.2278,0.2302,0.2348,0.2389,0.2411,0.2545,0.2476,0.2478,0.2513,0.2507,0.2552,0.2556,0.2556,0.2656,0.2673,0.273,0.263,0.2909,0.2917,0.2924,0.2989,0.3003,0.3016,0,0,0,0,0,0.227,0.2365,0.2351,0.237,0.2468,0.2548,0.2561,0.2559,0.2518,0.2563,0.258,0.2554,0.2713,0.2666,0.2685,0.2745,0.2906,0.2915,0.2923,0.2983,0.3001,0.3016,0,0,0,0,0,0,0.2332,0.2371,0.2355,0.2466,0.2504,0.254,0.2598,0.2579,0.263,0.2622,0.2617,0.2628,0.2724,0.2744,0.2691,0.2858,0.2803,0.2816,0.2841,0.2859,0.2872,0.2864,0.2636,0,0,0,0,0,0.2358,0.2421,0.2451,0.2546,0.2566,0.2578,0.2613,0.2608,0.2648,0.2664,0.2687,0.2726,0.2784,0.2823,0.2879,0.2992,0.2998,0.3042,0.3055,0.3066,0.3077,0.3134,0.3152,0.2956,0.2956,0.2956,0,0,0.2414,0.2443,0.2483,0.2559,0.2588,0.2651,0.2592,0.2663,0.2709,0.2675,0.2763,0.2782,0.2825,0.2928,0.2974,0.2947,0.3133,0.3078,0.3086,0.3091,0.3145,0.3163,0.3179,0.2962,0.2961,0.296,0,0,0.2546,0.2576,0.2656,0.2685,0.2729,0.2736,0.2755,0.2794,0.2804,0.2893,0.2867,0.2922,0.3023,0.3053,0.3082,0.3221,0.3198,0.3239,0.331,0.3365,0.3381,0.3394,0.344,0.3457,0.325,0.3251,0.3251,0,0.261,0.2704,0.2699,0.277,0.2803,0.2773,0.2852,0.2882,0.2942,0.2964,0.2933,0.3056,0.3084,0.3191,0.3224,0.325,0.3269,0.3234,0.3379,0.3393,0.3405,0.3449,0.3466,0.3255,0.3255,0.3254,0.3254,0,0.2777,0.2843,0.2902,0.2959,0.2998,0.3074,0.3078,0.3119,0.3109,0.3119,0.3208,0.3239,0.3298,0.3323,0.3316,0.3428,0.3409,0.3379,0.3323,0.3428,0.3469,0.3486,0.3261,0.326,0.3259,0.3257,0,0,0.2953,0.3003,0.3024,0.3048,0.3092,0.3142,0.3214,0.3271,0.3304,0.3346,0.3404,0.3488,0.3459,0.3491,0.3487,0.3536,0.3638,0.3498,0.3499,0.352,0.3759,0.3779,0.3799,0.3624,0.3627,0.363,0.3754,0,0.3086,0.3211,0.3207,0.3324,0.3382,0.3353,0.3415,0.3448,0.3458,0.3508,0.3519,0.3578,0.3537,0.3555,0.3602,0.3616,0.3686,0.3607,0.3676,0.3678,0.3663,0.3821,0.3844,0.396,0.377,0.3773,0.3775,0,0.3258,0.3302,0.3424,0.3456,0.348,0.3536,0.3585,0.3634,0.3669,0.3673,0.3707,0.3693,0.3764,0.3707,0.3802,0.3749,0.3776,0.3787,0.3791,0.3796,0.3731,0.3827,0.3998,0.4014,0.3801,0.3799,0.3797,0,0.3369,0.346,0.3543,0.3564,0.3604,0.3643,0.3662,0.3694,0.3726,0.3769,0.3789,0.3841,0.3868,0.3907,0.3906,0.3865,0.4001,0.3945,0.4004,0.4004,0.4032,0.403,0.4207,0.4055,0.4055,0.4054,0.4054,0,0.3516,0.3591,0.3593,0.3644,0.3725,0.3719,0.38,0.3814,0.3842,0.3894,0.3873,0.3922,0.3919,0.3968,0.3968,0.4044,0.4058,0.4061,0.4059,0.4061,0.406,0.4078,0.4068,0.4059,0.4058,0.4057,0.4056,0,0.3653,0.3658,0.3746,0.3776,0.3784,0.3843,0.3867,0.3914,0.3921,0.3987,0.4002,0.4013,0.4069,0.4072,0.4138,0.4137,0.4229,0.4221,0.4217,0.4214,0.4271,0.4264,0.4463,0.4487,0.4322,0.4324,0.4325,0,0.3746,0.3802,0.3836,0.3869,0.3889,0.3942,0.3974,0.397,0.4004,0.4046,0.4087,0.4141,0.4183,0.4274,0.4287,0.4336,0.4326,0.4392,0.4333,0.4332,0.4323,0.4318,0.4322,0.4403,0.4405,0.4406,0.4408,0,0.3908,0.3906,0.3954,0.4001,0.4039,0.4077,0.4111,0.4139,0.4138,0.4177,0.4233,0.4266,0.433,0.4383,0.4429,0.4446,0.4426,0.4426,0.4441,0.4443,0.4437,0.4437,0.4245,0.4421,0.442,0.4419,0.4418,0.4418,0.4024,0.407,0.41,0.4152,0.4177,0.4209,0.4253,0.4264,0.4311,0.4362,0.4357,0.4418,0.4448,0.4508,0.4529,0.4575,0.4553,0.4576,0.4581,0.4587,0.4591,0.4431,0.4584,0.4584,0.4584,0.4583,0.4583,0,0.4181,0.4198,0.4246,0.4293,0.4333,0.431,0.4346,0.438,0.4434,0.4464,0.4505,0.4567,0.4617,0.4633,0.468,0.4714,0.4705,0.4726,0.4723,0.4726,0.461,0.4591,0.4732,0.4732,0.4732,0.4732,0.4732,0.4732,0.4268,0.4344,0.4346,0.4433,0.4449,0.4508,0.453,0.4558,0.4581,0.4651,0.4691,0.4701,0.4724,0.4772,0.4815,0.4818,0.4835,0.4859,0.4858,0.475,0.4735,0.472,0.4701,0.4864,0.4864,0.4969,0.497,0.4971]}]]